Location: Wharf Road Observatory
(44.7802°N, 65.6070°W)
Time: 22:09:55
(UTC-04:00)

X-37B - Visible Passes

Search period start: 05 December 2021 00:00
Search period end: 15 December 2021 00:00
Orbit: 330 x 341 km, 45.0° (Epoch: 20 November)

Date Brightness Start Highest point End Pass type
(mag) Time Alt. Az. Time Alt. Az. Time Alt. Az.
05 Dec 3.0 18:43:01 10° SSW 18:43:42 14° S 18:43:42 14° S visible
06 Dec 3.2 19:02:39 10° SW 19:03:24 16° SW 19:03:24 16° SW visible
07 Dec 2.4 17:48:28 10° SSW 17:50:31 18° SSE 17:51:49 14° ESE visible
07 Dec 3.9 19:22:49 10° WSW 19:23:02 12° WSW 19:23:02 12° WSW visible
08 Dec 1.3 18:08:04 10° SW 18:10:45 36° SSE 18:11:25 31° SE visible
09 Dec 0.5 18:28:15 10° WSW 18:30:58 66° S 18:30:58 66° S visible
10 Dec 1.4 17:13:30 10° SW 17:16:10 36° SSE 17:18:51 10° E visible
10 Dec 1.9 18:48:40 10° W 18:50:30 36° W 18:50:30 36° W visible
11 Dec 0.5 17:33:40 10° WSW 17:36:32 67° SSE 17:38:49 15° E visible
11 Dec 3.3 19:09:09 10° W 19:10:03 18° W 19:10:03 18° W visible
12 Dec 0.2 17:54:06 10° W 17:56:58 87° N 17:58:22 27° E visible
13 Dec 0.2 18:14:34 10° W 18:17:27 84° N 18:17:57 57° E visible
14 Dec 0.7 18:35:01 10° W 18:37:35 63° WSW 18:37:35 63° WSW visible
